User: anonymous   Login
Location: Unspecified
(0.0000°N, 0.0000°E)
Time: 10:05:14
(UTC+00:00)
Language:

TBA - TO BE ASSIGNED - Orbit

View from above orbital plane
View from above orbital plane
View from above satellite
View from above satellite

Ground track
Ground track

The orbit is defined by the following mean orbital elements,

1 67954U          26145.28413462 +.00000000 +00000-0 +89064-3 0 00002
2 67954  43.0000 118.2714 0001403 271.9023  88.1668 15.27595898    02
Epoch (UTC): 25 May 2026 06:49:09
Eccentricity: 0.0001403
inclination: 43.0000°
perigee height: 482 km
apogee height: 484 km
right ascension of ascending node: 118.2714°
argument of perigee: 271.9023°
revolutions per day: 15.27595898
mean anomaly at epoch: 88.1668°

The dashed part of the orbit path shows where the satellite is in the earth's shadow,  

DLR